Montreal Mirabel, Ontario

1:02 PM EDT on April 25, 2017 (GMT -0400)
Montreal International (Mirabel)

Weather History for CYMX - July, 2012

Change the Weather History Date:

Tuesday, July 3, 2012

  Actual Average Record
Temperature  
Mean Temperature 66 °F -  
Max Temperature 82 °F 74 °F 91 °F (2002)
Min Temperature 51 °F 56 °F 51 °F (2007)
Cooling Degree Days 2    
Growing Degree Days 16 (Base 50)    
Moisture  
Dew Point 57 °F    
Average Humidity 69    
Maximum Humidity 100    
Minimum Humidity 42    
Precipitation  
Precipitation 0.00 in - - ()
Sea Level Pressure  
Sea Level Pressure 29.88 in    
Wind  
Wind Speed 4 mph ()    
Max Wind Speed 12 mph    
Max Gust Speed 17 mph    
Visibility 20.0 miles    
Events Rain    
Averages and records for this station are not official NWS values.
T = Trace of Precipitation, MM = Missing Value Source: Averaged Metar Reports

Daily Weather History Graph

Daily Weather History Graph

Search for Another Location

Airport or City:

Trip Planner

Search our weather history database for the weather conditions in past years. The results will help you decide how hot, cold, wet, or windy it might be!

Date:

Astronomy

Jul. 03, 2012 Rise Set
Actual Time 5:12 AM EDT 8:48 PM EDT
Civil Twilight 4:34 AM EDT 9:26 PM EDT
Nautical Twilight 3:43 AM EDT 10:16 PM EDT
Astronomical Twilight 2:36 AM EDT 11:23 PM EDT
Moon 8:37 PM EDT (7/3) 5:04 AM EDT (7/3)
Length of Visible Light 16h 51m
Length of Day
15h 36m
Full, 100% of the Moon is Illuminated
Jul 3
Full
Jul 3
Full
Jul 10
Last Quarter
Jul 19
New
Jul 26
First Quarter

Hourly Weather History & Observations

Time (EDT) Temp. Heat Index Dew Point Humidity Pressure Visibility Wind Dir Wind Speed Gust Speed Precip Events Conditions
1:00 AM 57.2 °F - 53.6 °F 88% 29.93 in 25.0 mi WNW 3.5 mph - N/A   Partly Cloudy
2:00 AM 55.4 °F - 51.8 °F 88% 29.93 in 25.0 mi Calm Calm - N/A   Clear
3:00 AM 53.6 °F - 51.8 °F 94% 29.92 in 25.0 mi NE 2.3 mph - N/A   Clear
4:00 AM 53.6 °F - 51.8 °F 94% 29.93 in 25.0 mi NW 2.3 mph - N/A   Clear
5:00 AM 51.8 °F - 51.8 °F 100% 29.93 in 25.0 mi Calm Calm - N/A   Partly Cloudy
6:00 AM 51.8 °F - 51.8 °F 100% 29.94 in 45.0 mi NW 2.3 mph - N/A   Scattered Clouds
7:00 AM 59.0 °F - 55.4 °F 88% 29.96 in 45.0 mi ENE 2.3 mph - N/A   Partly Cloudy
8:00 AM 64.4 °F - 55.4 °F 73% 29.96 in 45.0 mi ESE 5.8 mph - N/A   Partly Cloudy
9:00 AM 68.0 °F - 55.4 °F 64% 29.95 in 45.0 mi SSE 6.9 mph - N/A   Partly Cloudy
10:00 AM 71.6 °F - 57.2 °F 60% 29.95 in 45.0 mi SSE 2.3 mph - N/A   Partly Cloudy
11:00 AM 73.4 °F - 55.4 °F 53% 29.93 in 45.0 mi SSE 3.5 mph - N/A   Partly Cloudy
12:00 PM 77.0 °F - 55.4 °F 47% 29.91 in 45.0 mi SW 6.9 mph - N/A   Mostly Cloudy
1:00 PM 78.8 °F - 57.2 °F 47% 29.89 in 45.0 mi SSW 9.2 mph - N/A   Mostly Cloudy
2:00 PM 80.6 °F 81.1 °F 59.0 °F 48% 29.87 in 45.0 mi SW 8.1 mph - N/A   Mostly Cloudy
3:00 PM 82.4 °F 82.0 °F 57.2 °F 42% 29.85 in 45.0 mi South 8.1 mph - N/A   Mostly Cloudy
4:00 PM 78.8 °F - 59.0 °F 51% 29.83 in 45.0 mi SSW 9.2 mph - N/A   Overcast
5:00 PM 78.8 °F - 60.8 °F 54% 29.82 in 45.0 mi South 6.9 mph - N/A   Overcast
6:00 PM 78.8 °F - 59.0 °F 51% 29.81 in 45.0 mi SSW 5.8 mph - N/A   Overcast
7:00 PM 77.0 °F - 59.0 °F 54% 29.80 in 45.0 mi South 5.8 mph - N/A   Overcast
8:00 PM 75.2 °F - 59.0 °F 57% 29.78 in 45.0 mi South 5.8 mph - N/A   Overcast
9:00 PM 73.4 °F - 59.0 °F 61% 29.79 in 25.0 mi West 11.5 mph - N/A   Overcast
9:28 PM 68.0 °F - 60.8 °F 78% - 20.0 mi West 6.9 mph 17.3 mph N/A Rain Light Rain Showers
10:00 PM 66.2 °F - 62.6 °F 88% 29.79 in 20.0 mi West 3.5 mph - N/A Rain Light Rain Showers
11:00 PM 66.2 °F - 60.8 °F 83% 29.78 in 20.0 mi WNW 3.5 mph - N/A Rain Light Rain Showers